Theta_e
344 344 343 343 342 341 340 336 335 334 332 331 328 326 326 329 331 331 335 349 350 351 355 358 356 356 355 354 353 353 353 353 353 352 350 349 349 349 350 349 349 349 349
347 344 341 341 340 340 339 335 332 328 328 327 325 327 329 332 334 337 338 345 350 350 352 356 357 357 357 356 354 354 352 351 353 352 350 349 349 349 350 349 349 349 348
348 346 342 340 340 339 336 335 329 328 327 328 328 329 330 334 340 340 341 338 344 349 349 352 355 357 357 358 357 355 353 351 352 351 350 349 349 348 349 349 349 349 348
350 344 344 341 340 339 337 335 332 327 328 332 330 330 332 338 341 342 343 343 343 344 348 351 353 355 356 358 358 358 355 351 350 350 350 350 349 349 348 349 349 349 348
349 347 344 343 340 337 337 334 333 331 327 329 332 333 334 337 342 344 343 344 344 343 343 348 351 351 353 355 357 358 357 353 350 350 350 350 350 349 348 348 348 348 348
345 344 344 342 340 340 337 335 333 332 330 330 332 332 332 336 338 340 343 345 345 345 343 343 346 347 350 353 354 356 358 356 353 351 350 348 348 349 348 348 348 348 347
344 342 342 342 339 339 339 337 336 332 332 328 327 327 327 331 334 339 341 341 343 344 342 341 343 344 345 349 349 352 356 358 357 354 350 347 347 348 348 348 347 347 346
344 343 342 340 341 339 338 337 335 334 329 329 329 322 319 326 327 334 337 337 338 339 339 342 340 340 339 340 341 347 352 354 354 346 343 345 346 348 349 347 347 347 346
345 345 345 342 340 341 340 338 336 334 331 328 329 325 318 318 318 323 332 336 337 338 339 339 341 341 340 341 345 344 343 342 344 346 346 343 342 344 347 347 347 346 347
336 344 345 344 341 341 340 340 336 334 333 330 326 331 326 322 317 316 330 331 336 337 337 337 339 340 339 340 344 341 338 339 344 346 345 344 342 344 348 347 345 345 346
324 328 337 342 344 341 341 339 337 334 335 332 332 330 330 329 330 324 319 328 332 335 337 337 338 338 337 335 334 335 335 334 334 335 337 337 344 346 348 349 348 347 347
325 325 326 331 334 341 342 340 339 336 335 334 334 332 329 327 326 329 324 323 328 331 336 336 334 333 332 331 333 334 331 329 328 329 330 334 339 341 343 347 348 349 349
323 324 326 326 328 335 338 341 340 338 336 335 335 333 332 330 330 328 327 325 323 326 329 332 333 333 333 331 332 335 335 330 327 326 328 330 333 335 338 341 344 346 347
320 324 326 328 329 330 333 336 339 338 339 337 337 335 335 333 330 323 322 324 321 322 322 322 326 332 334 331 331 333 332 329 328 326 325 326 328 330 331 333 335 336 338
323 323 325 326 328 331 334 335 334 334 335 329 324 326 326 326 323 322 320 324 323 318 320 323 322 326 327 327 330 331 333 332 330 326 324 324 325 326 326 327 328 329 331
320 320 320 320 321 322 325 330 330 326 327 325 325 325 325 325 323 323 322 323 323 323 319 323 322 323 327 333 335 335 334 331 328 326 325 324 323 322 323 323 324 326 328
316 317 319 319 317 317 321 324 327 328 325 325 325 323 324 324 323 323 322 320 319 322 321 325 324 326 327 328 331 333 332 330 330 325 326 324 322 320 320 320 320 321 326
314 313 316 316 316 316 316 320 325 327 327 325 321 320 321 324 322 322 320 319 320 324 326 321 321 318 322 326 328 329 331 335 332 329 325 323 320 318 317 316 316 318 319
312 312 315 313 315 315 316 317 321 324 325 326 323 320 321 322 321 320 320 320 322 324 321 322 320 318 320 322 322 322 324 327 332 332 322 321 319 321 319 315 314 315 315
312 311 312 313 315 316 316 317 318 321 324 321 321 321 321 320 318 317 319 320 324 323 324 320 317 318 317 318 319 318 316 320 322 331 327 321 319 319 316 314 315 315 312
313 313 314 314 316 318 319 318 319 321 321 319 320 320 321 321 319 319 321 322 325 320 317 314 309 308 304 306 307 312 310 314 319 322 323 324 323 322 320 316 319 318 312
312 310 312 314 315 319 308 307 311 320 321 319 319 319 321 320 319 316 317 314 316 311 307 306 302 301 301 304 306 306 309 312 312 320 320 319 322 323 324 322 316 313 310
310 308 308 313 314 316 305 304 308 321 321 320 320 318 320 324 321 320 311 308 307 307 308 307 305 304 305 307 307 306 309 313 314 319 319 316 319 320 324 329 311 309 308
309 308 307 312 312 315 307 307 307 317 316 318 318 316 316 314 313 313 310 310 309 309 308 308 306 306 307 308 310 311 310 312 315 317 320 313 315 317 324 321 309 306 306
306 306 309 311 313 314 303 303 307 316 317 314 320 317 316 314 303 305 312 310 309 309 309 307 304 302 301 301 303 307 305 306 306 308 315 316 314 316 320 319 316 306 305
303 306 309 312 311 312 302 302 305 312 315 317 316 315 307 311 300 302 309 308 306 307 308 310 308 305 303 304 301 304 305 305 306 311 313 314 311 316 317 322 314 313 311
Wind_Speed
4 4 5 5 6 5 6 7 7 8 9 9 8 8 9 8 8 5 5 15 19 20 19 18 17 15 14 13 13 13 12 13 14 14 14 15 15 14 15 15 14 14 13
10 8 6 6 6 6 6 5 5 4 4 4 6 5 7 8 9 8 4 5 16 16 18 16 16 15 15 15 15 15 14 14 15 16 15 15 14 13 15 15 15 15 14
10 11 9 9 9 8 7 5 5 4 5 4 7 8 9 10 8 7 6 5 6 14 16 16 16 15 16 16 16 16 15 15 16 15 14 13 13 13 15 15 16 16 16
12 10 9 9 8 8 8 8 6 7 6 7 8 9 8 6 8 6 6 6 5 6 12 16 17 16 17 17 17 17 16 14 13 14 14 13 14 15 16 16 16 17 18
13 11 10 9 7 8 8 9 8 9 9 9 10 8 7 8 8 8 10 8 8 8 7 10 17 18 18 16 17 17 15 13 11 13 14 15 15 15 16 17 17 18 18
11 10 10 11 8 8 8 7 10 8 8 9 9 10 8 5 5 6 10 8 10 11 9 9 6 7 15 15 15 16 15 13 14 11 11 13 15 16 16 17 19 20 19
10 10 10 8 7 9 12 10 8 9 8 2 1 4 4 6 6 9 8 11 10 12 9 7 6 5 6 16 12 13 15 12 8 11 12 13 15 17 17 20 21 20 20
9 9 11 9 9 9 12 12 11 10 5 7 9 2 4 8 4 9 8 8 11 7 7 8 7 7 7 5 7 12 12 13 10 8 10 11 13 15 16 21 21 21 21
6 9 12 9 10 8 11 13 11 14 14 6 9 6 2 9 0 3 10 11 13 8 9 7 8 8 8 6 8 11 13 11 11 12 13 12 11 13 17 20 20 21 20
6 5 9 12 10 11 13 12 9 10 10 14 2 10 6 4 5 4 3 7 11 12 10 5 7 8 7 5 10 11 11 12 12 11 13 9 16 19 13 14 16 19 20
5 6 7 9 12 9 13 13 11 12 13 13 14 11 12 11 2 4 5 4 4 8 10 9 8 6 6 6 5 6 11 11 9 13 11 14 15 12 12 13 14 16 18
7 7 7 8 10 11 13 13 14 18 15 14 14 15 12 11 13 11 5 2 6 7 7 6 7 6 6 6 9 9 14 13 12 14 10 14 12 11 12 12 12 15 19
4 10 12 8 7 11 12 12 14 14 16 14 17 15 11 10 10 11 12 11 4 5 3 2 4 6 6 5 6 11 14 10 14 10 13 12 10 11 13 11 12 10 12
4 8 11 13 11 11 13 12 9 13 15 13 17 14 1 7 6 9 10 17 8 2 3 3 2 5 7 6 8 12 8 11 12 10 12 12 10 11 11 12 11 11 11
5 6 8 10 12 12 11 10 8 10 10 8 6 5 8 7 3 4 8 11 4 8 6 5 3 5 5 4 5 5 7 8 10 11 13 11 11 10 11 11 11 11 11
5 5 6 6 7 9 10 11 11 6 10 9 8 12 13 10 8 6 3 5 6 8 7 5 5 3 5 4 4 4 6 9 10 13 12 9 11 10 10 11 10 10 11
5 5 5 6 6 7 8 9 12 14 13 15 13 13 16 11 6 6 12 11 13 13 10 8 2 4 3 1 3 3 4 5 5 13 13 8 9 9 9 10 8 9 10
5 5 6 7 8 9 9 10 11 13 16 17 15 14 12 9 13 13 12 15 13 9 7 13 3 4 4 4 3 4 4 5 5 8 9 10 8 8 9 9 8 8 7
7 5 6 7 8 9 9 9 12 16 16 17 16 16 13 15 14 12 13 12 10 10 10 10 10 4 1 1 1 1 3 4 3 6 7 5 8 10 10 10 6 5 5
7 6 8 8 9 11 12 14 12 15 16 14 13 12 12 14 15 14 13 15 12 10 12 10 3 2 1 1 2 2 1 0 2 1 4 6 6 8 10 9 7 8 8
8 8 7 7 8 8 10 13 16 15 14 11 10 10 11 15 16 12 9 9 8 9 5 4 3 2 2 1 2 1 1 2 3 1 3 2 3 3 4 8 6 9 10
10 7 7 8 8 4 11 20 13 15 11 10 11 14 14 13 11 11 10 12 11 9 5 4 3 3 4 3 2 3 3 2 2 1 2 3 2 4 3 4 10 11 10
7 11 8 7 7 6 8 9 22 6 5 7 6 6 6 5 10 12 11 10 9 10 8 7 6 5 4 6 5 3 4 3 4 3 2 4 3 4 4 3 10 11 11
8 10 8 8 5 7 6 5 9 13 4 3 6 5 4 8 8 12 10 8 6 6 6 4 6 6 4 4 5 4 4 3 2 4 4 4 3 3 1 3 8 9 14
6 7 6 9 6 5 10 9 4 2 8 8 1 7 7 10 11 14 10 8 6 3 4 8 6 5 5 7 6 3 3 3 4 4 4 4 3 2 3 2 2 10 13
10 10 9 11 9 5 9 12 11 5 7 9 5 7 10 13 16 15 9 8 6 4 2 1 0 2 4 4 4 6 4 5 4 3 4 5 2 3 1 1 2 4 7
Wind_Direction
215 224 227 225 224 222 230 235 231 214 227 220 232 230 231 226 243 237 245 240 208 201 213 218 219 218 217 219 223 226 224 224 223 221 219 221 222 222 227 230 235 236 226
201 193 195 219 234 218 212 221 241 263 234 276 261 241 255 264 247 231 225 234 205 207 216 215 223 221 223 224 223 224 218 223 226 223 219 222 226 226 230 232 233 233 236
210 213 211 207 219 219 216 222 221 210 240 228 239 236 226 239 250 242 220 227 221 222 220 213 221 224 226 228 232 231 227 224 225 225 226 224 223 224 232 235 235 233 235
209 212 219 221 214 205 201 210 215 230 231 224 239 243 244 225 233 237 219 206 213 218 232 227 219 219 228 227 231 235 235 232 227 225 225 226 228 223 222 229 231 234 233
221 214 217 228 206 210 212 213 216 214 222 225 230 235 235 233 237 235 236 230 215 222 222 225 219 218 222 226 228 234 237 236 230 225 223 224 229 230 225 226 230 228 231
225 226 231 226 219 219 225 218 224 221 233 232 232 234 227 224 225 236 238 235 231 232 225 209 217 226 224 221 227 237 232 229 234 234 234 231 231 231 232 228 229 228 229
228 219 232 236 232 235 227 218 215 222 228 200 153 268 269 251 237 229 242 242 242 237 217 230 205 194 212 220 217 232 237 232 235 236 233 236 235 239 227 232 226 229 224
231 235 238 232 225 234 236 232 217 224 229 181 221 148 240 249 255 243 238 235 233 228 223 211 202 206 204 198 212 225 222 217 215 214 220 225 231 236 241 246 232 227 222
248 245 256 239 238 233 234 235 230 226 233 221 207 185 161 233 265 215 227 228 229 226 235 211 200 206 203 192 172 183 189 203 224 237 233 228 255 251 242 240 235 228 224
273 257 256 257 236 238 232 235 229 222 232 235 198 231 225 149 197 285 271 232 222 222 219 212 204 202 188 194 207 207 210 222 238 262 279 276 283 279 264 261 245 231 228
259 262 261 264 255 235 246 238 234 222 225 226 231 227 224 229 186 170 244 280 297 235 222 204 203 186 180 181 217 230 234 249 258 263 272 281 271 275 288 272 235 233 233
309 300 267 265 274 268 242 239 239 236 228 229 233 235 231 223 226 224 211 178 272 250 209 186 183 183 185 195 210 220 245 246 249 257 272 273 269 280 273 267 264 246 238
305 306 299 282 252 264 271 255 234 243 242 234 231 229 229 239 247 247 234 228 167 275 254 204 175 182 197 196 223 221 243 238 245 248 256 257 267 277 278 266 263 265 264
281 293 298 295 283 271 271 270 262 247 242 241 244 273 66 281 99 46 353 266 225 217 315 244 156 204 213 207 210 239 250 245 242 237 245 251 259 260 274 267 254 249 249
279 312 320 315 313 307 290 281 275 271 257 188 210 133 127 178 199 188 55 333 5 248 257 269 188 207 214 192 215 230 236 243 235 234 236 238 255 264 262 263 259 253 244
249 279 287 293 292 300 298 289 278 248 223 201 206 217 215 207 180 167 181 176 294 310 287 258 250 238 192 168 238 261 248 229 227 242 245 228 242 244 250 256 251 252 246
235 261 267 275 289 296 292 274 269 271 234 237 229 225 214 226 237 212 220 198 207 190 254 247 281 247 230 193 275 235 239 241 255 246 241 250 242 234 238 253 247 253 258
238 246 249 250 274 285 297 291 274 268 260 243 235 223 203 195 199 196 206 207 203 208 196 265 219 234 187 196 225 248 258 242 236 246 233 235 222 226 234 248 237 238 247
244 245 259 263 266 264 264 269 264 259 256 249 229 215 196 177 190 189 193 195 203 206 190 227 234 232 204 129 217 257 278 277 252 249 230 224 231 236 238 238 216 198 178
228 222 245 251 256 271 276 275 273 256 252 232 219 206 183 183 183 181 182 197 183 194 208 214 191 134 169 316 96 126 30 282 306 321 229 221 215 240 246 242 215 181 192
252 233 250 264 265 276 290 305 293 266 221 196 197 207 196 191 175 174 183 199 209 191 167 157 161 127 144 131 142 156 236 292 299 210 321 308 266 235 229 221 207 201 207
258 242 239 252 271 277 327 312 273 259 209 180 196 198 211 190 165 194 181 160 177 147 146 159 147 168 191 178 167 174 176 168 260 260 141 269 209 280 242 200 191 197 178
265 255 240 236 253 253 267 340 336 293 219 136 138 167 195 184 181 165 156 139 118 129 140 143 164 185 154 201 162 171 218 200 207 251 166 256 212 252 263 183 188 184 155
222 248 239 240 225 265 263 329 321 327 10 124 108 119 125 128 128 135 135 127 131 125 137 139 191 183 189 197 191 177 202 217 263 260 189 235 233 234 200 119 175 166 141
283 255 237 238 204 228 206 240 249 299 302 291 356 178 173 145 139 127 128 121 117 145 172 182 204 221 211 229 203 144 237 181 254 244 207 191 242 210 221 167 123 117 115
260 268 261 241 207 221 210 208 209 196 254 239 206 167 148 143 145 130 123 130 141 199 165 41 166 265 227 263 232 191 199 209 205 261 230 173 200 173 186 79 95 111 97